Location: Newark
(25.0000°N, 73.5000°E)
Time: 01:16:13
(UTC+00:00)

Tiros 1 despin weight - Pass Details

Date: 07 March 2021
Orbit: 593 x 641 km, 48.2° (Epoch: 15 April)

Event Time Altitude Azimuth Distance (km) Brightness Sun altitude
Rises 01:34:29 0° 296° (WNW) 2,934 ? 1.7°
Reaches altitude 10° 01:37:17 10° 280° (W) 2,025 ? 2.3°
Maximum altitude 01:40:46 21° 232° (SW) 1,431 ? 3.1°
Drops below altitude 10° 01:44:15 10° 183° (S) 2,015 ? 3.9°
Sets 01:47:02 0° 167° (SSE) 2,916 ? 4.5°
